Stations météo

Publicité
Rouen, France (7037): Température de l'air & dewpoint: 11.12.2017 03:00:00 - 17.12.2017 03:00:00 (CET)Rouen, France (7037): Température de l'air 5cm: 11.12.2017 03:00:00 - 17.12.2017 03:00:00 (CET)Rouen, France (7037): Température de l'air -20cm & Température de l'air -100cm: 11.12.2017 03:00:00 - 17.12.2017 03:00:00 (CET)Rouen, France (7037): Vitesse du vent & gusts: 11.12.2017 03:00:00 - 17.12.2017 03:00:00 (CET)Rouen, France (7037): Direction du vent: 11.12.2017 03:00:00 - 17.12.2017 03:00:00 (CET)Rouen, France (7037): reduced air pressure: 11.12.2017 03:00:00 - 17.12.2017 03:00:00 (CET)Rouen, France (7037): visibility: 11.12.2017 03:00:00 - 17.12.2017 03:00:00 (CET)Rouen, France (7037): Ensoleillement: 11.12.2017 03:00:00 - 17.12.2017 03:00:00 (CET)Rouen, France (7037): Quantités de précipitations: 11.12.2017 03:00:00 - 17.12.2017 03:00:00 (CET)
Date & Time tt [°C] td [°C] tt 5cm [°C] tt -20cm [°C] tt -100cm [°C] ff [km/h] ff [knt] fx [km/h] fx [knt] dd ppp [hPa] vv [km] sd [min] rr [mm]
17.12.2017 03:00:00 0,8 0,4 -3,1 5,6 8,6 6 3 10 5 WNW 1024,0 0,7 0 0,0
17.12.2017 02:00:00 1,5 0,9 -0,7 5,6 8,6 8 4 13 7 WNW 1023,5 2,1 0 0,0
17.12.2017 01:00:00 3,4 3,0 2,7 5,6 8,6 10 5 16 9 W 1023,1 12 0 0,4
17.12.2017 00:00:00 3,5 3,2 2,7 5,6 8,6 10 5 15 8 W 1022,8 11 0 0,4
16.12.2017 23:00:00 3,1 2,7 2,4 5,6 8,6 8 4 18 10 WSW 1022,4 7 0 0,0
16.12.2017 22:00:00 3,3 2,6 2,7 5,6 8,6 14 8 19 10 WSW 1022,1 43 0 0,0
16.12.2017 21:00:00 3,4 2,4 1,7 5,6 8,6 6 3 37 20 W 1022,3 20 0 0,6
16.12.2017 20:00:00 2,6 0,7 1,1 5,6 8,6 7 4 14 8 SW 1021,9 60 0 0,0
16.12.2017 19:00:00 3,6 1,0 1,9 5,7 8,6 11 6 26 14 W 1021,7 60 0 0,0
16.12.2017 18:00:00 3,9 -0,1 1,7 5,6 8,6 14 8 36 19 NNW 1021,5 45 0 0,0
16.12.2017 17:00:00 3,6 -0,4 2,1 5,6 8,6 13 7 31 17 WNW 1021,2 59 0 0,0
16.12.2017 16:00:00 4,7 -0,3 3,7 5,6 8,6 18 10 34 18 NW 1020,3 59 4 0,0
16.12.2017 15:00:00 5,5 -1,0 5,3 5,5 8,6 22 12 37 20 NNW 1019,5 54 58 0,0
16.12.2017 14:00:00 5,7 -0,2 7,4 5,5 8,6 26 14 37 20 NNW 1019,1 60 58 0,0
16.12.2017 13:00:00 5,2 0,9 6,1 5,5 8,6 21 11 41 22 NNW 1018,8 10 45 0,0
16.12.2017 12:00:00 5,7 2,0 7,0 5,5 8,6 20 11 34 18 NW 1018,7 60 58 0,0
16.12.2017 11:00:00 4,6 2,1 3,6 5,5 8,6 16 8 25 14 NW 1018,3 50 58 0,0
16.12.2017 10:00:00 3,3 2,0 2,1 5,5 8,6 11 6 23 12 NW 1017,1 20 3 0,0
16.12.2017 09:00:00 3,1 2,2 1,4 5,5 8,6 14 7 23 12 NW 1016,2 18 0 0,0
16.12.2017 08:00:00 3,9 2,3 3,1 5,5 8,7 13 7 31 17 NW 1015,3 43 0 0,0
16.12.2017 07:00:00 3,9 2,6 2,8 5,5 8,6 17 9 29 16 NW 1014,1 19 0 0,0
16.12.2017 06:00:00 3,9 2,4 2,6 5,5 8,6 16 9 27 15 NW 1013,4 10 0 0,0
16.12.2017 05:00:00 3,7 2,2 2,2 5,5 8,6 18 10 31 17 NNW 1012,6 20 0 0,2
16.12.2017 04:00:00 4,3 2,8 2,7 5,6 8,7 22 12 35 19 NNW 1011,9 19 0 0,0
16.12.2017 03:00:00 4,4 2,9 3,5 5,5 8,6 17 9 29 15 NNW 1010,9 20 0 0,0
16.12.2017 02:00:00 4,3 3,0 2,5 5,6 8,7 17 9 29 16 NW 1009,7 58 0 0,0
16.12.2017 01:00:00 4,5 3,2 3,6 5,5 8,7 16 9 29 16 NW 1009,0 10 0 0,0
16.12.2017 00:00:00 4,4 3,4 3,6 5,6 8,7 13 7 31 17 NW 1008,2 7 0 0,8
15.12.2017 23:00:00 4,4 3,1 3,4 5,6 8,7 21 12 36 20 NNW 1006,9 11 0 0,4
15.12.2017 22:00:00 4,2 3,0 2,7 5,6 8,7 19 11 39 21 NW 1006,1 19 0 0,0
15.12.2017 21:00:00 3,9 2,6 2,5 5,6 8,7 20 11 45 24 NNW 1005,1 50 0 0,2
15.12.2017 20:00:00 4,2 2,9 3,2 5,5 8,7 23 13 41 22 NNW 1003,9 9 0 0,6
15.12.2017 19:00:00 3,8 2,8 3,1 5,5 8,7 24 13 45 24 NNW 1002,8 9 0 0,8
15.12.2017 18:00:00 3,8 2,6 2,9 5,5 8,7 21 11 34 18 NNW 1001,8 13 0 0,4
15.12.2017 17:00:00 4,1 2,9 3,5 5,5 8,7 22 12 38 20 NNW 1000,6 17 0 0,2
15.12.2017 16:00:00 4,0 2,8 3,3 5,5 8,7 24 13 45 24 NNW 999,1 10 0 1,0
15.12.2017 15:00:00 4,0 2,7 3,7 5,5 8,7 23 12 40 22 N 997,6 18 0 0,8
15.12.2017 14:00:00 3,5 2,8 2,8 5,5 8,7 14 8 42 23 NNW 996,2 11 0 3,6
15.12.2017 13:00:00 4,3 3,9 3,8 5,5 8,7 16 9 34 18 WSW - 9 0 1,2
15.12.2017 12:00:00 4,2 3,3 4,0 5,6 8,8 28 15 45 25 WSW - 14 0 1,0
15.12.2017 11:00:00 4,1 3,7 3,5 5,6 8,8 16 9 23 12 SW - 10 0 1,9
15.12.2017 10:00:00 3,7 3,1 2,8 5,6 8,7 11 6 24 13 WSW - 10 0 3,2
15.12.2017 09:00:00 3,4 3,0 2,6 5,6 8,8 15 8 28 15 SW - 11 0 0,8
15.12.2017 08:00:00 3,0 2,4 2,5 5,6 8,8 9 5 31 17 SSW - 18 0 0,4
15.12.2017 07:00:00 3,0 2,6 0,6 5,6 8,7 18 10 26 14 WSW - 12 0 0,0
15.12.2017 06:00:00 2,7 2,0 0,6 5,7 8,8 17 9 23 12 WSW - 20 0 0,0
15.12.2017 05:00:00 3,3 2,3 1,6 5,7 8,8 12 7 27 14 W - 50 0 0,0
15.12.2017 04:00:00 4,3 3,4 3,5 5,7 8,8 16 9 32 17 W - 10 0 0,4
15.12.2017 03:00:00 4,3 3,7 3,3 5,7 8,8 21 11 40 21 W - 20 0 0,0
15.12.2017 02:00:00 3,4 3,0 2,4 5,8 8,8 24 13 41 22 SW - 12 0 0,2
15.12.2017 01:00:00 2,5 2,1 1,9 5,8 8,8 23 12 43 23 SSW - 12 0 1,8
15.12.2017 00:00:00 2,7 2,4 1,5 5,8 8,8 26 14 43 23 SW - 9 0 0,2
14.12.2017 23:00:00 2,0 1,7 0,0 5,9 8,8 20 11 29 16 SSW - 57 0 0,0
14.12.2017 22:00:00 1,6 1,0 0,3 5,9 8,8 16 9 27 15 SW - 17 0 0,0
14.12.2017 21:00:00 2,3 1,9 -0,6 5,9 8,8 16 9 36 19 SW - 57 0 0,6
14.12.2017 20:00:00 1,7 0,8 0,2 6,0 8,8 8 4 68 37 WSW - 60 0 2,0
14.12.2017 19:00:00 3,6 2,0 2,4 6,0 8,8 35 19 54 29 W - 8 0 0,4
14.12.2017 18:00:00 3,0 2,3 2,1 6,0 8,8 22 12 33 18 SSW - 60 0 0,0
14.12.2017 17:00:00 2,9 2,2 2,4 6,0 8,8 21 11 31 17 SSW - 60 0 0,0
14.12.2017 16:00:00 3,0 2,4 1,6 6,0 8,8 15 8 32 17 SW - 60 0 4,0
14.12.2017 15:00:00 4,0 2,5 3,4 6,0 8,8 21 11 50 27 WSW - 54 0 0,0
14.12.2017 14:00:00 5,1 3,8 4,3 6,0 8,8 26 14 49 26 SW - 59 0 0,2
14.12.2017 13:00:00 4,9 2,8 5,2 6,0 8,8 29 16 52 28 SW - 57 14 0,0
14.12.2017 12:00:00 5,6 3,1 4,5 6,0 8,8 36 19 50 27 SW - 60 17 0,0
14.12.2017 11:00:00 4,3 2,6 3,8 6,0 8,8 29 16 48 26 SW - 50 2 0,0
14.12.2017 10:00:00 3,9 2,4 3,3 6,1 8,8 35 19 59 32 SW - 43 0 0,0
14.12.2017 09:00:00 3,6 2,1 2,3 6,1 8,8 32 18 53 29 SW - 56 0 0,0
14.12.2017 08:00:00 3,6 1,6 2,7 6,1 8,9 32 18 47 25 SW - 57 0 0,0
14.12.2017 07:00:00 3,8 0,8 2,9 6,1 8,8 30 16 45 24 SW 1001,0 59 0 0,0
14.12.2017 06:00:00 4,0 1,2 2,6 6,2 8,9 27 15 40 22 WSW 1001,2 44 0 0,0
14.12.2017 05:00:00 3,8 0,5 2,9 6,2 8,9 26 14 42 23 WSW 1001,3 10 0 0,0
14.12.2017 04:00:00 4,9 1,4 3,8 6,2 8,9 21 11 42 23 WSW 1001,3 20 0 0,0
14.12.2017 03:00:00 5,5 1,2 4,1 6,2 8,9 24 13 48 26 W 1000,6 20 0 0,0
14.12.2017 02:00:00 5,3 1,6 4,1 6,2 8,9 22 12 59 32 W 999,6 20 0 0,0
14.12.2017 01:00:00 5,0 2,9 3,9 6,2 8,9 32 18 55 30 W 998,4 48 0 0,6
14.12.2017 00:00:00 5,2 3,7 4,5 6,2 8,9 35 19 69 37 W 997,5 10 0 2,4
13.12.2017 23:00:00 6,5 4,7 5,5 6,1 8,9 29 16 59 32 WSW 996,4 11 0 0,2
13.12.2017 22:00:00 6,4 5,0 5,4 6,1 8,9 21 11 67 36 WSW 996,9 20 0 0,6
13.12.2017 21:00:00 6,9 6,2 5,6 6,1 8,9 17 9 35 19 WSW 997,1 10 0 0,2
13.12.2017 20:00:00 7,2 5,7 6,3 6,0 8,9 23 13 79 43 WNW 997,1 58 0 0,8
13.12.2017 19:00:00 8,7 8,1 7,9 6,0 8,9 29 16 49 26 WSW 996,4 60 0 0,2
13.12.2017 18:00:00 8,1 7,7 7,6 5,9 8,9 30 16 45 25 SW 996,7 3,2 0 0,6
13.12.2017 17:00:00 8,0 7,4 7,5 5,9 8,9 29 16 46 25 SSW 997,9 10 0 0,8
13.12.2017 16:00:00 8,1 7,0 7,5 5,8 8,9 31 17 48 26 SW 999,5 9 0 0,2
13.12.2017 15:00:00 8,1 6,6 7,7 5,8 8,9 27 14 39 21 SSW 1000,8 18 0 0,0
13.12.2017 14:00:00 8,0 7,2 7,8 5,7 8,9 24 13 36 19 SW - 16 0 0,0
13.12.2017 13:00:00 7,8 7,4 7,5 5,7 8,9 25 14 33 18 SW - 13 0 0,2
13.12.2017 12:00:00 7,6 7,2 7,7 5,6 8,9 21 11 32 17 SW - 12 0 0,2
13.12.2017 11:00:00 7,1 6,8 6,4 5,6 8,9 19 10 29 15 SW - 53 0 0,0
13.12.2017 10:00:00 6,5 6,2 5,8 5,6 9,0 19 11 29 15 SW - 20 0 0,2
13.12.2017 09:00:00 6,0 5,7 5,6 5,6 8,9 20 11 45 24 SSW - 50 0 0,0
13.12.2017 08:00:00 5,9 5,6 5,3 5,6 9,0 32 18 53 29 SSW 1006,4 4,5 0 0,2
13.12.2017 07:00:00 5,5 5,1 4,9 5,6 9,0 28 15 49 26 SSW 1006,6 4,2 0 1,2
13.12.2017 06:00:00 5,1 4,7 4,3 5,5 9,0 32 17 48 26 S 1006,9 4,3 0 2,0
13.12.2017 05:00:00 4,8 3,9 4,0 5,5 9,0 30 16 47 26 S 1008,5 6 0 0,4
13.12.2017 04:00:00 4,6 3,4 4,0 5,5 9,0 23 13 35 19 S 1009,8 11 0 0,4
13.12.2017 03:00:00 4,6 3,1 3,7 5,5 9,0 23 12 41 22 SSW 1011,1 33 0 0,0
13.12.2017 02:00:00 4,6 2,8 3,6 5,6 9,0 30 16 40 22 SSW 1011,7 36 0 0,0
13.12.2017 01:00:00 4,1 2,4 3,4 5,6 9,0 23 12 33 18 S 1012,9 29 0 0,0
13.12.2017 00:00:00 3,8 2,3 2,8 5,6 9,0 20 11 27 15 S 1013,4 20 0 0,0
12.12.2017 23:00:00 3,4 2,2 2,6 5,6 9,0 19 10 28 15 SSW 1014,1 19 0 0,0
12.12.2017 22:00:00 3,3 2,0 1,5 5,6 9,0 22 12 31 17 SSW 1014,4 29 0 0,0
12.12.2017 21:00:00 2,6 1,4 1,4 5,7 9,0 18 10 23 13 SSW 1014,8 19 0 0,0
12.12.2017 20:00:00 2,7 1,7 -0,5 5,7 9,0 16 9 23 12 SSW 1014,6 10 0 0,0
12.12.2017 19:00:00 2,8 1,2 -1,4 5,6 9,0 9 5 15 8 S 1014,1 54 0 0,0
12.12.2017 18:00:00 1,1 0,2 -2,8 5,6 9,0 10 5 13 7 SSW 1014,3 39 0 0,0
12.12.2017 17:00:00 2,8 0,5 -1,3 5,6 9,0 8 5 17 9 SSW 1013,5 60 0 0,0
12.12.2017 16:00:00 5,3 1,2 4,7 5,5 9,0 10 6 23 13 W 1013,1 53 5 0,0
12.12.2017 15:00:00 6,2 2,3 7,0 5,5 9,0 16 9 23 13 SW 1012,2 60 39 0,0
12.12.2017 14:00:00 6,7 2,8 7,9 5,5 9,0 7 4 - - WSW 1012,0 45 52 -
12.12.2017 13:00:00 5,9 3,1 6,9 5,5 9,0 11 6 14 8 SW 1012,0 27 60 0,0
12.12.2017 12:00:00 3,4 2,1 2,0 5,6 9,1 9 5 12 6 S 1011,7 20 19 0,0
12.12.2017 11:00:00 1,5 0,9 0,4 5,6 9,1 8 4 13 7 SSW 1011,8 20 12 0,0
12.12.2017 10:00:00 0,5 0,1 -1,3 5,7 9,1 9 5 19 10 SW 1010,9 43 0 0,0
12.12.2017 09:00:00 -0,8 -1,2 -6,2 5,8 9,1 14 8 18 10 SW 1009,7 19 0 0,0
12.12.2017 08:00:00 -0,9 -1,6 -4,9 5,8 9,1 12 7 16 9 SW 1008,6 20 0 0,0
12.12.2017 07:00:00 -0,6 -1,2 -5,1 5,9 9,1 10 6 14 7 SW 1007,2 54 0 0,0
12.12.2017 06:00:00 -0,8 -1,5 -5,5 5,9 9,1 9 5 12 7 WSW 1006,2 52 0 0,0
12.12.2017 05:00:00 -0,8 -1,8 -5,3 6,0 9,1 9 5 14 7 W 1004,9 48 0 0,0
12.12.2017 04:00:00 -0,1 -1,1 -3,7 6,0 9,1 13 7 21 11 W 1003,5 42 0 0,0
12.12.2017 03:00:00 0,1 -0,9 -2,9 6,1 9,1 14 8 20 11 WNW 1002,2 41 0 0,0
12.12.2017 02:00:00 0,9 -0,3 -1,0 6,1 9,1 13 7 24 13 WNW 1001,0 47 0 0,0
12.12.2017 01:00:00 1,6 0,0 0,2 6,1 9,1 12 7 23 12 WNW 999,9 51 0 0,0
12.12.2017 00:00:00 2,0 0,2 0,8 6,1 9,1 14 8 33 18 WNW 998,4 19 0 0,0
11.12.2017 23:00:00 3,5 1,2 2,4 6,2 9,1 21 11 39 21 NW 996,4 59 0 0,0
11.12.2017 22:00:00 3,5 1,7 2,4 6,2 9,1 23 12 45 25 NW 994,1 18 0 0,2
11.12.2017 21:00:00 3,5 1,9 2,2 6,2 9,1 23 12 44 24 NW 991,6 59 0 0,0
11.12.2017 20:00:00 3,6 1,8 1,7 6,2 9,1 26 14 46 25 NNW 989,1 10 0 0,4
11.12.2017 19:00:00 2,1 1,2 1,5 6,2 9,1 15 8 55 30 N 986,9 10 0 1,8
11.12.2017 18:00:00 3,6 1,0 1,8 6,3 9,2 31 17 72 39 NNW 984,0 18 0 -
11.12.2017 17:00:00 2,5 0,7 1,5 6,2 9,2 - - 64 34 - - 60 0 -
11.12.2017 16:00:00 1,8 0,5 1,5 6,2 9,1 32 18 60 32 N 977,5 18 0 0,0
11.12.2017 15:00:00 2,8 2,1 2,8 6,2 9,2 28 15 43 23 NNW 973,6 4,4 0 0,0
11.12.2017 14:00:00 6,1 5,4 6,2 6,1 9,2 15 8 24 13 WNW 970,3 10 0 0,2
11.12.2017 13:00:00 6,5 5,9 6,4 6,1 9,2 11 6 16 9 WNW 967,8 19 0 0,2
11.12.2017 12:00:00 6,2 5,2 5,8 6,1 9,2 7 4 29 16 E 966,2 9 0 0,6
11.12.2017 11:00:00 6,2 5,2 5,7 6,0 9,2 17 9 39 21 SSE 966,5 4,8 0 1,4
11.12.2017 10:00:00 6,9 4,9 6,0 6,0 9,2 21 11 44 24 SSE 967,2 10 0 0,2
11.12.2017 09:00:00 7,8 6,7 6,4 6,0 9,2 25 13 48 26 SSE 967,4 10 0 0,4
11.12.2017 08:00:00 6,7 6,4 5,8 6,0 9,2 26 14 42 23 E 968,2 12 0 3,0
11.12.2017 07:00:00 6,0 5,6 5,2 6,0 9,2 29 16 54 29 E 969,4 4,2 0 4,0
11.12.2017 06:00:00 5,5 5,1 4,7 6,0 9,2 35 19 51 27 E 970,5 5 0 2,9
11.12.2017 05:00:00 5,2 4,6 4,9 6,0 9,2 28 15 40 21 E 973,4 10 0 1,8
11.12.2017 04:00:00 5,2 4,9 4,7 6,0 9,2 21 11 29 15 E 976,1 5 0 1,8
11.12.2017 03:00:00 5,4 4,7 4,9 6,0 9,3 14 8 22 12 ESE 978,8 7 0 0,2

tt = Température de l'air
td = dewpoint
tt 5cm = Température de l'air 5cm
tt -20cm = Température de l'air -20cm
tt -100cm = Température de l'air -100cm
ff = Vitesse du vent
fx = gusts
dd = Direction du vent
ppp = reduced air pressure
vv = visibility
sd = Ensoleillement
rr = Quantités de précipitations

stations d'obs. à proximité